TimeCST,TemperatureF,Dew PointF,Humidity,Sea Level PressureIn,VisibilityMPH,Wind Direction,Wind SpeedMPH,Gust SpeedMPH,PrecipitationIn,Events,Conditions,WindDirDegrees,DateUTC
12:53 AM,35.1,33.1,92,30.07,0.8,Calm,Calm,-,N/A,,Mist,0,2013-01-01 06:53:00
1:53 AM,35.1,33.1,92,30.06,0.5,NNE,4.6,-,N/A,Fog,Fog,30,2013-01-01 07:53:00
2:48 AM,33.8,33.8,100,30.05,1.2,NNE,4.6,-,0.01,,Overcast,30,2013-01-01 08:48:00
2:53 AM,34.0,33.1,96,30.07,1.2,NNE,6.9,-,0.01,,Overcast,30,2013-01-01 08:53:00
3:17 AM,33.8,33.8,100,30.05,2.0,NNE,5.8,-,N/A,,Overcast,30,2013-01-01 09:17:00
3:26 AM,33.8,33.8,100,30.06,1.8,NNE,5.8,-,N/A,,Overcast,30,2013-01-01 09:26:00
3:39 AM,33.8,33.8,100,30.06,3.0,NNE,4.6,-,N/A,,Overcast,20,2013-01-01 09:39:00
3:53 AM,34.0,32.0,92,30.09,6.0,NNE,6.9,-,N/A,,Overcast,30,2013-01-01 09:53:00
4:53 AM,34.0,32.0,92,30.08,6.0,NNE,5.8,-,N/A,,Overcast,30,2013-01-01 10:53:00
5:53 AM,33.1,30.9,92,30.09,6.0,NNE,9.2,-,N/A,,Overcast,20,2013-01-01 11:53:00
6:53 AM,33.1,30.9,92,30.11,5.0,NNE,6.9,-,N/A,,Overcast,30,2013-01-01 12:53:00
7:53 AM,33.1,30.0,89,30.15,8.0,North,5.8,-,N/A,,Overcast,360,2013-01-01 13:53:00
8:53 AM,33.1,30.0,89,30.12,7.0,NE,9.2,-,N/A,,Overcast,40,2013-01-01 14:53:00
9:53 AM,32.0,30.0,92,30.17,6.0,NNE,5.8,-,N/A,,Overcast,20,2013-01-01 15:53:00
10:33 AM,33.8,30.2,87,30.16,5.0,North,5.8,-,N/A,,Overcast,360,2013-01-01 16:33:00
10:53 AM,32.0,30.0,92,30.21,4.0,NNE,6.9,-,N/A,,Overcast,30,2013-01-01 16:53:00
11:53 AM,30.9,28.0,89,30.18,5.0,North,10.4,-,N/A,,Overcast,10,2013-01-01 17:53:00
12:53 PM,30.9,28.0,89,30.17,4.0,NNE,8.1,-,N/A,,Overcast,20,2013-01-01 18:53:00
1:42 PM,30.2,26.6,86,30.14,5.0,North,6.9,-,N/A,,Overcast,360,2013-01-01 19:42:00
1:53 PM,30.9,28.0,89,30.17,4.0,North,8.1,-,N/A,,Overcast,350,2013-01-01 19:53:00
2:09 PM,30.2,26.6,86,30.14,2.5,North,6.9,-,N/A,,Overcast,360,2013-01-01 20:09:00
2:21 PM,30.2,26.6,86,30.13,1.2,North,5.8,-,0.00,Snow,Light Snow,360,2013-01-01 20:21:00
2:30 PM,30.2,26.6,86,30.14,1.2,North,8.1,-,0.00,Snow,Light Snow,350,2013-01-01 20:30:00
2:53 PM,30.0,27.0,88,30.17,2.0,NNW,6.9,-,0.00,,Overcast,340,2013-01-01 20:53:00
3:14 PM,30.2,26.6,86,30.15,3.0,North,6.9,-,N/A,,Overcast,350,2013-01-01 21:14:00
4:31 PM,28.4,24.8,86,30.16,8.0,North,8.1,-,N/A,,Overcast,350,2013-01-01 22:31:00
4:53 PM,28.9,24.1,82,30.21,7.0,NNW,5.8,-,N/A,,Overcast,330,2013-01-01 22:53:00
5:00 PM,28.4,24.8,86,30.18,7.0,NNW,6.9,-,N/A,,Overcast,340,2013-01-01 23:00:00
5:21 PM,28.4,23.0,80,30.18,10.0,NNW,6.9,-,N/A,,Overcast,340,2013-01-01 23:21:00
5:28 PM,28.4,23.0,80,30.19,10.0,NNW,8.1,-,N/A,,Overcast,340,2013-01-01 23:28:00
5:53 PM,27.0,21.9,81,30.22,10.0,NNW,8.1,-,N/A,,Overcast,340,2013-01-01 23:53:00
6:53 PM,25.0,19.9,81,30.23,10.0,North,5.8,-,N/A,,Clear,360,2013-01-02 00:53:00
7:53 PM,24.1,19.0,81,30.23,10.0,North,4.6,-,N/A,,Clear,350,2013-01-02 01:53:00
8:53 PM,23.0,19.0,85,30.26,9.0,NNW,5.8,-,N/A,,Clear,340,2013-01-02 02:53:00
9:53 PM,23.0,18.0,81,30.25,9.0,North,5.8,-,N/A,,Clear,350,2013-01-02 03:53:00
10:53 PM,21.9,17.1,82,30.25,8.0,North,5.8,-,N/A,,Clear,10,2013-01-02 04:53:00
11:53 PM,21.0,17.1,85,30.27,8.0,NNW,4.6,-,N/A,,Clear,330,2013-01-02 05:53:00